Regional Weather Roundup
Issued by NWS

Home | Current Version | Previous Version | Graphics & Text | Print | Product List | Glossary On
Versions: 1 2 3 4 5 6 7 8 9 10 11 12 13 14 15 16 17 18 19 20 21 22 23 24 25 26 27 28 29 30 31 32 33 34 35 36 37 38 39 40 41 42 43 44 45 46 47 48 49 50
000
ASUS43 KFSD 271002
RWRSD

WEATHER ROUNDUP FOR SOUTH DAKOTA
NATIONAL WEATHER SERVICE SIOUX FALLS SD
500 AM CDT FRI MAY 27 2016

NOTE: "FAIR" INDICATES FEW OR NO CLOUDS BELOW 12,000 FEET WITH NO
SIGNIFICANT WEATHER AND/OR OBSTRUCTIONS TO VISIBILITY.


SDZ001>005-009-010-012>017-271100-
NORTHWEST AND NORTH CENTRAL SOUTH DAKOTA

CITY           SKY/WX    TMP DP  RH WIND       PRES   REMARKS
BUFFALO          N/A     48  42  80 SE6       29.80S
FAITH            N/A     48  41  76 NW9       29.84F
MOBRIDGE       CLOUDY    52  47  83 N6        29.76F
$$

SDZ012>016-024>037-041>051-057-063-072>074-271100-
SOUTHWEST AND SOUTH CENTRAL SOUTH DAKOTA

CITY           SKY/WX    TMP DP  RH WIND       PRES   REMARKS
RAPID CTY ARPT CLOUDY    50  44  80 NW6       29.86S
PIERRE         CLOUDY    53  50  89 NW14      29.73F
CUSTER         CLOUDY    44  37  76 NW7       29.91F
PHILIP         CLOUDY    50  46  86 NW5       29.81S
PINE RIDGE     CLOUDY    49  45  86 CALM      29.83S
WINNER         PTSUNNY   57  52  83 N10       29.74F
$$

SDZ004>011-016>023-039-040-271100-
NORTHEAST SOUTH DAKOTA

CITY           SKY/WX    TMP DP  RH WIND       PRES   REMARKS
ABERDEEN       PTCLDY    58  52  80 N5        29.75S
WATERTOWN      CLOUDY    59  53  80 E6        29.78F
BROOKINGS      CLOUDY    57  55  93 E3        29.77F
SISSETON         N/A     55  53  93 NE7       29.77R
$$

SDZ017-020-022-023-036>040-048>070-271100-
SOUTHEAST SOUTH DAKOTA

CITY           SKY/WX    TMP DP  RH WIND       PRES   REMARKS
SIOUX FALLS    CLOUDY    56  54  93 CALM      29.75F
HURON          CLOUDY    56  55  97 E3        29.74F
MITCHELL       CLOUDY    59  58  96 E6        29.74F
YANKTON        CLOUDY    59  55  88 N5        29.71F
$$

ABBREVIATIONS USED IN REMARKS
   TC - TEMPERATURE IN CELSIUS
  WCI - WIND CHILL INDEX
   HX - HEAT INDEX
  VSB - VISIBILITY




USA.gov is the U.S. government's official web portal to all federal, state and local government web resources and services.